User: anonymous   Login
Location: ??
(34.9170°N, 135.5016°E)
Time: 12:36:15
(UTC+00:00)
Language:

deb Chang Zheng 4 - Orbit

View from above orbital plane
View from above orbital plane
View from above satellite
View from above satellite

Ground track
Ground track

The orbit data is extracted from the following two-line orbital elements,

1 20847U 90081K   21018.86640111  .00002043  00000-0  24387-3 0  9994
2 20847  98.5697  11.0879 0015542 178.0807 182.0468 14.85420529599991
Epoch (UTC): 18 January 2021 20:47:37
Eccentricity: 0.0015542
inclination: 98.5697°
perigee height: 601 km
apogee height: 623 km
right ascension of ascending node: 11.0879°
argument of perigee: 178.0807°
revolutions per day: 14.85420529
mean anomaly at epoch: 182.0468°
orbit number at epoch: 59999

The dashed part of the orbit path shows where the satellite is in the earth's shadow,  

DLR